North Windham, CT

2:54 PM EST on February 06, 2016 (GMT -0500)
Windham

Weather History for KIJD - February, 2014

Change the Weather History Date:

Monday, February 24, 2014

  Actual Average Record
Temperature  
Mean Temperature 33 °F -  
Max Temperature 42 °F 41 °F 62 °F (1990)
Min Temperature 23 °F 22 °F -11 °F (2015)
Degree Days  
Heating Degree Days 32    
Moisture  
Dew Point 12 °F    
Average Humidity 45    
Maximum Humidity 73    
Minimum Humidity 32    
Precipitation  
Precipitation 0.00 in - - ()
Sea Level Pressure  
Sea Level Pressure 29.87 in    
Wind  
Wind Speed 9 mph (WNW)    
Max Wind Speed 20 mph    
Max Gust Speed 32 mph    
Visibility 10 miles    
Events      
Averages and records for this station are not official NWS values.
T = Trace of Precipitation, MM = Missing Value Source: NWS Daily Summary

Daily Weather History Graph

Daily Weather History Graph

Search for Another Location

Airport or City:

Trip Planner

Search our weather history database for the weather conditions in past years. The results will help you decide how hot, cold, wet, or windy it might be!

Date:

Astronomy

Feb. 24, 2014 Rise Set
Actual Time 6:31 AM EST 5:33 PM EST
Civil Twilight 6:03 AM EST 6:01 PM EST
Nautical Twilight 5:30 AM EST 6:33 PM EST
Astronomical Twilight 4:58 AM EST 7:05 PM EST
Moon 2:29 AM EST (2/24) 12:28 PM EST (2/24)
Length of Visible Light 11h 57m
Length of Day
11h 01m
Waning Crescent, 28% of the Moon is Illuminated
Feb 24
Waning Crescent
Mar 1
New
Mar 8
First Quarter
Mar 16
Full
Mar 23
Last Quarter

Hourly Weather History & Observations

Time (EST) Temp. Windchill Dew Point Humidity Pressure Visibility Wind Dir Wind Speed Gust Speed Precip Events Conditions
12:52 AM 37.0 °F 34.5 °F 28.9 °F 73% 29.79 in 10.0 mi SSW 3.5 mph - 0.00 in   Overcast
1:52 AM 42.1 °F 38.4 °F 28.9 °F 60% 29.78 in 10.0 mi SW 5.8 mph - 0.00 in   Overcast
2:52 AM 41.0 °F 35.8 °F 24.1 °F 51% 29.78 in 10.0 mi NW 8.1 mph - N/A   Overcast
3:52 AM 37.9 °F 34.4 °F 19.9 °F 48% 29.78 in 10.0 mi NNW 4.6 mph - N/A   Partly Cloudy
4:52 AM 36.0 °F 29.6 °F 15.1 °F 43% 29.82 in 10.0 mi NW 8.1 mph - N/A   Clear
5:52 AM 33.1 °F 24.9 °F 12.9 °F 43% 29.83 in 10.0 mi WNW 10.4 mph 18.4 mph N/A   Clear
6:52 AM 30.0 °F 24.1 °F 12.0 °F 47% 29.83 in 10.0 mi NW 5.8 mph - N/A   Clear
7:52 AM 30.0 °F 21.7 °F 10.0 °F 43% 29.86 in 10.0 mi NW 9.2 mph 20.7 mph N/A   Clear
8:52 AM 30.9 °F 21.2 °F 10.0 °F 42% 29.86 in 10.0 mi WNW 12.7 mph 21.9 mph N/A   Clear
9:52 AM 32.0 °F 20.5 °F 10.9 °F 42% 29.84 in 10.0 mi West 18.4 mph 27.6 mph N/A   Clear
10:52 AM 32.0 °F 23.6 °F 10.9 °F 42% 29.83 in 10.0 mi WNW 10.4 mph 19.6 mph N/A   Scattered Clouds
11:52 AM 33.1 °F 22.6 °F 10.0 °F 38% 29.83 in 10.0 mi West 16.1 mph 24.2 mph N/A   Overcast
12:52 PM 34.0 °F 23.4 °F 9.0 °F 35% 29.81 in 10.0 mi West 17.3 mph 25.3 mph N/A   Mostly Cloudy
1:52 PM 33.1 °F 21.5 °F 8.1 °F 35% 29.81 in 10.0 mi NW 19.6 mph 27.6 mph N/A   Overcast
2:52 PM 32.0 °F 20.5 °F 7.0 °F 35% 29.82 in 10.0 mi NW 18.4 mph 32.2 mph N/A   Mostly Cloudy
3:52 PM 30.9 °F 22.8 °F 6.1 °F 35% 29.83 in 10.0 mi WNW 9.2 mph 21.9 mph N/A   Overcast
4:52 PM 30.9 °F 23.5 °F 3.9 °F 32% 29.86 in 10.0 mi WNW 8.1 mph 21.9 mph N/A   Mostly Cloudy
5:52 PM 28.0 °F 16.5 °F 10.9 °F 49% 29.90 in 10.0 mi NW 15.0 mph 20.7 mph N/A   Partly Cloudy
6:52 PM 27.0 °F 18.7 °F 10.0 °F 49% 29.94 in 10.0 mi WNW 8.1 mph - N/A   Clear
7:52 PM 25.0 °F 14.8 °F 10.0 °F 53% 29.97 in 10.0 mi WNW 10.4 mph 18.4 mph N/A   Clear
8:52 PM 24.1 °F 13.7 °F 10.0 °F 55% 30.00 in 10.0 mi WNW 10.4 mph - N/A   Clear
9:52 PM 25.0 °F 14.8 °F 6.1 °F 45% 30.01 in 10.0 mi West 10.4 mph 25.3 mph N/A   Clear
10:52 PM 24.1 °F 15.2 °F 5.0 °F 44% 30.02 in 10.0 mi WNW 8.1 mph 18.4 mph N/A   Clear
11:52 PM 23.0 °F 11.7 °F 5.0 °F 46% 30.01 in 10.0 mi WNW 11.5 mph 18.4 mph N/A   Clear